Location: Newark
(59.8814°N, 10.8258°E)
Time: 13:34:59
(UTC+00:00)

Envisat - Pass Details

Date: 30 January 2020
Orbit: 764 x 766 km, 98.1° (Epoch: 24 February)

Event Time Altitude Azimuth Distance (km) Brightness Sun altitude
Rises 04:41:53 0° 21° (NNE) 3,249 6.5 -21.3°
Reaches altitude 10° 04:44:52 10° 39° (NE) 2,317 6.0 -21.0°
Maximum altitude 04:48:29 19° 85° (E) 1,756 5.8 -20.5°
Drops below altitude 10° 04:52:06 10° 131° (SE) 2,305 6.2 -20.1°
Sets 04:55:03 0° 148° (SSE) 3,225 6.7 -19.7°
